Location: Tamazert
(32.6352°N, 5.2072°W)
Time: 15:13:31
(UTC+00:00)

deb Explorer IX - Visible Passes

Search period start: 03 October 2022 00:00
Search period end: 13 October 2022 00:00
Orbit: 531 x 1064 km, 38.8° (Epoch: 02 October)

Date Brightness Start Highest point End Pass type
(mag) Time Alt. Az. Time Alt. Az. Time Alt. Az.
03 Oct ? 05:07:52 10° SSW 05:11:58 35° SE 05:16:39 10° E visible
04 Oct ? 04:39:28 21° S 04:41:33 31° SE 04:45:53 10° E visible
05 Oct ? 04:10:58 27° SE 04:11:06 27° SE 04:15:06 10° E visible
06 Oct ? 03:42:23 19° ESE 03:42:23 19° ESE 03:44:19 10° E visible
06 Oct ? 05:23:12 17° WSW 05:26:33 78° NNW 05:31:40 10° ENE visible
07 Oct ? 04:54:31 41° WSW 04:56:01 83° NNW 05:00:56 10° ENE visible
08 Oct ? 04:25:46 78° ENE 04:25:46 78° ENE 04:30:12 10° ENE visible
09 Oct ? 03:56:58 32° ENE 03:56:58 32° ENE 03:59:30 10° ENE visible
09 Oct ? 05:37:46 12° WNW 05:41:32 41° N 05:46:18 10° ENE visible
10 Oct ? 03:28:06 14° ENE 03:28:06 14° ENE 03:28:49 10° ENE visible
10 Oct ? 05:08:53 25° WNW 05:10:55 41° N 05:15:29 10° ENE visible
11 Oct ? 04:39:58 40° NNW 04:40:18 41° N 04:44:42 10° ENE visible
12 Oct ? 04:11:01 32° NNE 04:11:01 32° NNE 04:13:56 10° ENE visible
12 Oct ? 05:52:21 10° WNW 05:56:29 41° N 06:01:12 10° E visible
